DONNELLS (DON)

Elevation: 4835' · STANISLAUS R basin · Operator: US Bureau of Reclamation

Provisional data, subject to change.
Query executed Friday at 11:43:49   clock

Select a sensor type for a plot of data.
Note: Reservoir Flows are daily averages.

Earlier

Date STORAGE    RES CHG    OUTFLOW   
 AF   AF   CFS  
04/07/2016 23676 1142 764
04/08/2016 25032 1356 697
04/09/2016 26793 1761 684
04/10/2016 28189 1396 682
04/11/2016 29549 1360 679
04/12/2016 31011 1462 678
04/13/2016 32533 1522 675
04/14/2016 33932 1399 672
04/15/2016 34780 848 670
04/16/2016 35397 617 670
04/17/2016 36103 706 669
04/18/2016 37169 1066 656
04/19/2016 38743 1574 643
04/20/2016 40805 2062 551
04/21/2016 42782 1977 627
04/22/2016 44930 2148 591
04/23/2016 46488 1558 558
04/24/2016 47692 1204 588
04/25/2016 48475 783 630
04/26/2016 49016 541 620
04/27/2016 49483 467 617
04/28/2016 49841 -- 661
04/29/2016 49987 146 699
04/30/2016 50542 555 543
05/01/2016 50860 318 671
05/02/2016 51289 429 675
05/03/2016 51913 624 701
05/04/2016 52691 778 730
05/05/2016 53689 998 704
05/06/2016 -- -- --

Later | Latest

Warning! This data is preliminary and subject to revision.

Show DON Map | Plot DON Data | 1 Month DON Data | Real-Time DON Data | DON Info